Time,TemperatureF,DewpointF,PressureIn,WindDirection,WindDirectionDegrees,WindSpeedMPH,WindSpeedGustMPH,Humidity,HourlyPrecipIn,Conditions,Clouds,dailyrainin,SoftwareType,DateUTC
2015-05-25 00:00:00,65.8,46.7,30.11,SE,135,2.3,0.0,50,0.00,CLR,,0.00,WeatherDisplay:10.37,2015-05-25 04:00:00,
2015-05-25 00:05:00,65.8,46.7,30.11,SE,135,1.2,0.0,50,0.00,CLR,,0.00,WeatherDisplay:10.37,2015-05-25 04:05:00,
2015-05-25 00:10:00,65.3,46.7,30.11,SE,135,1.2,0.0,51,0.00,CLR,,0.00,WeatherDisplay:10.37,2015-05-25 04:10:00,
2015-05-25 00:15:00,65.1,46.5,30.11,South,180,1.2,0.0,51,0.00,CLR,,0.00,WeatherDisplay:10.37,2015-05-25 04:15:00,
2015-05-25 00:20:00,65.1,46.5,30.11,SE,135,1.2,0.0,51,0.00,CLR,,0.00,WeatherDisplay:10.37,2015-05-25 04:20:00,
2015-05-25 00:25:00,65.1,46.5,30.11,SE,135,2.3,0.0,51,0.00,CLR,,0.00,WeatherDisplay:10.37,2015-05-25 04:25:00,
2015-05-25 00:30:00,65.3,47.2,30.11,SE,135,1.2,0.0,52,0.00,CLR,,0.00,WeatherDisplay:10.37,2015-05-25 04:30:00,
2015-05-25 00:35:00,65.3,46.7,30.11,South,180,0.0,0.0,51,0.00,CLR,,0.00,WeatherDisplay:10.37,2015-05-25 04:35:00,
2015-05-25 00:40:00,65.3,46.7,30.11,SE,135,1.2,0.0,51,0.00,CLR,,0.00,WeatherDisplay:10.37,2015-05-25 04:40:00,
2015-05-25 00:45:00,64.9,46.4,30.11,SE,135,1.2,0.0,51,0.00,CLR,,0.00,WeatherDisplay:10.37,2015-05-25 04:45:00,
2015-05-25 00:50:00,64.8,46.7,30.11,SE,135,0.0,0.0,52,0.00,CLR,,0.00,WeatherDisplay:10.37,2015-05-25 04:50:00,
2015-05-25 00:55:00,64.6,47.1,30.11,SE,135,1.2,0.0,53,0.00,CLR,,0.00,WeatherDisplay:10.37,2015-05-25 04:55:00,
2015-05-25 01:00:00,64.2,47.2,30.11,South,180,1.2,1.2,54,0.00,CLR,,0.00,WeatherDisplay:10.37,2015-05-25 05:00:00,
2015-05-25 01:05:00,64.2,47.2,30.11,South,180,2.3,2.3,54,0.00,CLR,,0.00,WeatherDisplay:10.37,2015-05-25 05:05:00,
2015-05-25 01:10:00,63.3,47.3,30.11,SE,135,1.2,1.2,56,0.00,CLR,,0.00,WeatherDisplay:10.37,2015-05-25 05:10:00,
2015-05-25 01:15:00,63.3,47.8,30.11,SE,135,1.2,0.0,57,0.00,CLR,,0.00,WeatherDisplay:10.37,2015-05-25 05:15:00,
2015-05-25 01:20:00,63.1,47.7,30.11,SE,135,1.2,0.0,57,0.00,CLR,,0.00,WeatherDisplay:10.37,2015-05-25 05:20:00,
2015-05-25 01:25:00,63.1,47.7,30.11,ENE,68,1.2,0.0,57,0.00,CLR,,0.00,WeatherDisplay:10.37,2015-05-25 05:25:00,
2015-05-25 01:30:00,63.1,48.1,30.10,SE,135,1.2,1.2,58,0.00,CLR,,0.00,WeatherDisplay:10.37,2015-05-25 05:30:00,
2015-05-25 01:35:00,63.0,47.9,30.10,SE,135,1.2,1.2,58,0.00,CLR,,0.00,WeatherDisplay:10.37,2015-05-25 05:35:00,
2015-05-25 01:45:00,62.8,47.8,30.10,NE,45,1.2,0.0,58,0.00,CLR,,0.00,WeatherDisplay:10.37,2015-05-25 05:45:00,
2015-05-25 01:50:00,63.0,47.9,30.10,South,180,1.2,0.0,58,0.00,CLR,,0.00,WeatherDisplay:10.37,2015-05-25 05:50:00,
2015-05-25 01:55:00,63.0,47.9,30.10,SE,135,3.5,0.0,58,0.00,CLR,,0.00,WeatherDisplay:10.37,2015-05-25 05:55:00,
2015-05-25 02:00:00,63.0,47.5,30.10,South,180,1.2,0.0,57,0.00,CLR,,0.00,WeatherDisplay:10.37,2015-05-25 06:00:00,
2015-05-25 02:05:00,63.0,47.5,30.10,South,180,1.2,0.0,57,0.00,CLR,,0.00,WeatherDisplay:10.37,2015-05-25 06:05:00,
2015-05-25 02:10:00,63.7,47.7,30.09,SE,135,1.2,0.0,56,0.00,CLR,,0.00,WeatherDisplay:10.37,2015-05-25 06:10:00,
2015-05-25 02:15:00,64.0,47.5,30.10,East,90,1.2,0.0,55,0.00,CLR,,0.00,WeatherDisplay:10.37,2015-05-25 06:15:00,
2015-05-25 02:20:00,64.2,47.2,30.09,South,180,1.2,0.0,54,0.00,CLR,,0.00,WeatherDisplay:10.37,2015-05-25 06:20:00,
2015-05-25 02:25:00,64.6,47.1,30.09,SE,135,1.2,0.0,53,0.00,CLR,,0.00,WeatherDisplay:10.37,2015-05-25 06:25:00,
2015-05-25 02:30:00,64.6,47.1,30.09,South,180,1.2,0.0,53,0.00,CLR,,0.00,WeatherDisplay:10.37,2015-05-25 06:30:00,
2015-05-25 02:35:00,64.4,46.9,30.10,SE,135,2.3,0.0,53,0.00,CLR,,0.00,WeatherDisplay:10.37,2015-05-25 06:35:00,
2015-05-25 02:40:00,64.2,46.7,30.09,SE,135,2.3,0.0,53,0.00,CLR,,0.00,WeatherDisplay:10.37,2015-05-25 06:40:00,
2015-05-25 02:45:00,63.9,46.9,30.09,SE,135,2.3,0.0,54,0.00,CLR,,0.00,WeatherDisplay:10.37,2015-05-25 06:45:00,
2015-05-25 02:50:00,63.9,46.9,30.09,South,180,2.3,0.0,54,0.00,CLR,,0.00,WeatherDisplay:10.37,2015-05-25 06:50:00,
2015-05-25 02:55:00,64.0,46.6,30.08,East,90,1.2,0.0,53,0.00,CLR,,0.00,WeatherDisplay:10.37,2015-05-25 06:55:00,
2015-05-25 03:00:00,64.0,46.6,30.08,South,180,1.2,0.0,53,0.00,CLR,,0.00,WeatherDisplay:10.37,2015-05-25 07:00:00,
2015-05-25 03:05:00,64.0,46.6,30.08,South,180,1.2,0.0,53,0.00,CLR,,0.00,WeatherDisplay:10.37,2015-05-25 07:05:00,
2015-05-25 03:10:00,64.2,46.2,30.08,ESE,112,1.2,0.0,52,0.00,CLR,,0.00,WeatherDisplay:10.37,2015-05-25 07:10:00,
2015-05-25 03:15:00,64.4,46.4,30.08,South,180,3.5,0.0,52,0.00,CLR,,0.00,WeatherDisplay:10.37,2015-05-25 07:15:00,
2015-05-25 03:20:00,64.2,46.2,30.08,SE,135,2.3,2.3,52,0.00,CLR,,0.00,WeatherDisplay:10.37,2015-05-25 07:20:00,
2015-05-25 03:25:00,64.2,46.2,30.08,West,270,1.2,1.2,52,0.00,CLR,,0.00,WeatherDisplay:10.37,2015-05-25 07:25:00,
2015-05-25 03:30:00,64.2,46.2,30.08,East,90,1.2,0.0,52,0.00,CLR,,0.00,WeatherDisplay:10.37,2015-05-25 07:30:00,
2015-05-25 03:35:00,63.9,46.4,30.08,SE,135,2.3,0.0,53,0.00,CLR,,0.00,WeatherDisplay:10.37,2015-05-25 07:35:00,
2015-05-25 03:40:00,63.9,46.4,30.08,South,180,1.2,0.0,53,0.00,CLR,,0.00,WeatherDisplay:10.37,2015-05-25 07:40:00,
2015-05-25 03:45:00,63.7,46.2,30.08,South,180,3.5,0.0,53,0.00,CLR,,0.00,WeatherDisplay:10.37,2015-05-25 07:45:00,
2015-05-25 03:50:00,63.7,46.2,30.08,South,180,1.2,1.2,53,0.00,CLR,,0.00,WeatherDisplay:10.37,2015-05-25 07:50:00,
2015-05-25 03:55:00,63.7,46.2,30.08,South,180,1.2,1.2,53,0.00,CLR,,0.00,WeatherDisplay:10.37,2015-05-25 07:55:00,
2015-05-25 04:00:00,63.9,46.4,30.08,SE,135,1.2,0.0,53,0.00,CLR,,0.00,WeatherDisplay:10.37,2015-05-25 08:00:00,
2015-05-25 04:05:00,63.9,46.4,30.08,SE,135,2.3,0.0,53,0.00,CLR,,0.00,WeatherDisplay:10.37,2015-05-25 08:05:00,
2015-05-25 04:10:00,63.9,46.4,30.08,South,180,2.3,0.0,53,0.00,CLR,,0.00,WeatherDisplay:10.37,2015-05-25 08:10:00,
2015-05-25 04:15:00,63.9,45.9,30.08,SE,135,1.2,0.0,52,0.00,CLR,,0.00,WeatherDisplay:10.37,2015-05-25 08:15:00,
2015-05-25 04:20:00,63.9,45.9,30.08,South,180,2.3,2.3,52,0.00,CLR,,0.00,WeatherDisplay:10.37,2015-05-25 08:20:00,
2015-05-25 04:25:00,64.0,46.1,30.08,SSW,202,2.3,0.0,52,0.00,CLR,,0.00,WeatherDisplay:10.37,2015-05-25 08:25:00,
2015-05-25 04:30:00,64.2,46.2,30.08,SE,135,1.2,1.2,52,0.00,CLR,,0.00,WeatherDisplay:10.37,2015-05-25 08:30:00,
2015-05-25 04:35:00,64.6,46.0,30.08,SE,135,2.3,2.3,51,0.00,CLR,,0.00,WeatherDisplay:10.37,2015-05-25 08:35:00,
2015-05-25 04:40:00,65.1,46.0,30.09,South,180,3.5,3.5,50,0.00,CLR,,0.00,WeatherDisplay:10.37,2015-05-25 08:40:00,
2015-05-25 04:45:00,65.3,45.1,30.08,SE,135,3.5,3.5,48,0.00,CLR,,0.00,WeatherDisplay:10.37,2015-05-25 08:45:00,
2015-05-25 04:50:00,66.0,45.8,30.09,South,180,1.2,1.6,48,0.00,CLR,,0.00,WeatherDisplay:10.37,2015-05-25 08:50:00,
2015-05-25 04:55:00,65.8,45.6,30.08,ESE,112,3.5,0.0,48,0.00,CLR,,0.00,WeatherDisplay:10.37,2015-05-25 08:55:00,
2015-05-25 05:00:00,65.8,45.6,30.09,SW,225,3.5,3.5,48,0.00,CLR,,0.00,WeatherDisplay:10.37,2015-05-25 09:00:00,
2015-05-25 05:05:00,65.8,45.6,30.08,SW,225,2.3,2.3,48,0.00,CLR,,0.00,WeatherDisplay:10.37,2015-05-25 09:05:00,
2015-05-25 05:10:00,65.5,45.8,30.08,SE,135,1.2,0.0,49,0.00,CLR,,0.00,WeatherDisplay:10.37,2015-05-25 09:10:00,
2015-05-25 05:20:00,65.3,45.6,30.08,NE,45,2.3,0.0,49,0.00,CLR,,0.00,WeatherDisplay:10.37,2015-05-25 09:20:00,
2015-05-25 05:25:00,65.3,45.6,30.08,SW,225,2.3,0.0,49,0.00,CLR,,0.00,WeatherDisplay:10.37,2015-05-25 09:25:00,
2015-05-25 05:30:00,65.5,45.8,30.09,South,180,1.2,0.0,49,0.00,CLR,,0.00,WeatherDisplay:10.37,2015-05-25 09:30:00,
2015-05-25 05:35:00,65.8,45.6,30.09,South,180,2.3,0.0,48,0.00,CLR,,0.00,WeatherDisplay:10.37,2015-05-25 09:35:00,
2015-05-25 05:40:00,65.8,45.6,30.09,East,90,2.3,0.0,48,0.00,CLR,,0.00,WeatherDisplay:10.37,2015-05-25 09:40:00,
2015-05-25 05:45:00,66.0,45.8,30.09,South,180,3.5,3.5,48,0.00,CLR,,0.00,WeatherDisplay:10.37,2015-05-25 09:45:00,
2015-05-25 05:50:00,66.0,45.2,30.08,East,90,3.5,3.5,47,0.00,CLR,,0.00,WeatherDisplay:10.37,2015-05-25 09:50:00,
2015-05-25 05:55:00,66.2,45.4,30.09,SW,225,3.5,3.5,47,0.00,CLR,,0.00,WeatherDisplay:10.37,2015-05-25 09:55:00,
2015-05-25 06:00:00,66.4,45.0,30.09,South,180,3.5,0.0,46,0.00,CLR,,0.00,WeatherDisplay:10.37,2015-05-25 10:00:00,
2015-05-25 06:05:00,66.4,45.0,30.09,South,180,2.3,0.0,46,0.00,CLR,,0.00,WeatherDisplay:10.37,2015-05-25 10:05:00,
2015-05-25 06:10:00,66.4,45.5,30.09,SE,135,1.2,0.0,47,0.00,CLR,,0.00,WeatherDisplay:10.37,2015-05-25 10:10:00,
2015-05-25 06:15:00,66.2,45.4,30.09,East,90,1.2,0.0,47,0.00,CLR,,0.00,WeatherDisplay:10.37,2015-05-25 10:15:00,
2015-05-25 06:21:00,66.2,45.4,30.09,South,180,2.3,0.0,47,0.00,CLR,,0.00,WeatherDisplay:10.37,2015-05-25 10:21:00,
2015-05-25 06:25:00,66.2,45.4,30.09,ESE,112,2.3,2.3,47,0.00,CLR,,0.00,WeatherDisplay:10.37,2015-05-25 10:25:00,
2015-05-25 06:30:00,66.4,45.5,30.09,SE,135,3.5,3.5,47,0.00,CLR,,0.00,WeatherDisplay:10.37,2015-05-25 10:30:00,
2015-05-25 06:35:00,66.4,45.5,30.09,SSW,202,2.3,2.3,47,0.00,CLR,,0.00,WeatherDisplay:10.37,2015-05-25 10:35:00,
2015-05-25 06:45:00,66.4,45.5,30.10,South,180,2.3,0.0,47,0.00,CLR,,0.00,WeatherDisplay:10.37,2015-05-25 10:45:00,
2015-05-25 06:50:00,66.4,45.5,30.10,SE,135,3.5,0.0,47,0.00,CLR,,0.00,WeatherDisplay:10.37,2015-05-25 10:50:00,
2015-05-25 06:55:00,66.4,46.1,30.10,South,180,2.3,2.3,48,0.00,CLR,,0.00,WeatherDisplay:10.37,2015-05-25 10:55:00,
2015-05-25 07:00:00,66.7,45.9,30.10,South,180,5.8,5.8,47,0.00,CLR,,0.00,WeatherDisplay:10.37,2015-05-25 11:00:00,
2015-05-25 07:05:00,66.7,45.9,30.11,South,180,4.6,4.6,47,0.00,CLR,,0.00,WeatherDisplay:10.37,2015-05-25 11:05:00,
2015-05-25 07:10:00,66.9,46.0,30.10,SE,135,8.1,8.1,47,0.00,CLR,,0.00,WeatherDisplay:10.37,2015-05-25 11:10:00,
2015-05-25 07:15:00,67.1,46.2,30.10,West,270,2.3,2.3,47,0.00,CLR,,0.00,WeatherDisplay:10.37,2015-05-25 11:15:00,
2015-05-25 07:20:00,67.1,46.2,30.10,East,90,3.5,3.5,47,0.00,CLR,,0.00,WeatherDisplay:10.37,2015-05-25 11:20:00,
2015-05-25 07:25:00,67.3,46.4,30.10,South,180,1.2,1.2,47,0.00,CLR,,0.00,WeatherDisplay:10.37,2015-05-25 11:25:00,
2015-05-25 07:30:00,67.3,46.4,30.10,ESE,112,5.8,5.8,47,0.00,CLR,,0.00,WeatherDisplay:10.37,2015-05-25 11:30:00,
2015-05-25 07:35:00,67.3,46.4,30.11,SW,225,3.5,3.5,47,0.00,CLR,,0.00,WeatherDisplay:10.37,2015-05-25 11:35:00,
2015-05-25 07:40:00,67.3,46.4,30.11,SW,225,1.2,1.6,47,0.00,CLR,,0.00,WeatherDisplay:10.37,2015-05-25 11:40:00,
2015-05-25 07:45:00,67.6,46.7,30.11,SSE,158,2.3,2.3,47,0.00,CLR,,0.00,WeatherDisplay:10.37,2015-05-25 11:45:00,
2015-05-25 07:50:00,67.8,46.3,30.11,SE,135,4.6,4.6,46,0.00,CLR,,0.00,WeatherDisplay:10.37,2015-05-25 11:50:00,
2015-05-25 07:55:00,67.8,46.8,30.11,South,180,1.2,0.0,47,0.00,CLR,,0.00,WeatherDisplay:10.37,2015-05-25 11:55:00,
2015-05-25 08:00:00,68.2,46.6,30.11,SW,225,4.6,4.6,46,0.00,CLR,,0.00,WeatherDisplay:10.37,2015-05-25 12:00:00,
2015-05-25 08:05:00,68.2,46.6,30.11,SW,225,4.6,4.6,46,0.00,CLR,,0.00,WeatherDisplay:10.37,2015-05-25 12:05:00,
2015-05-25 08:10:00,68.9,46.7,30.11,South,180,5.8,5.8,45,0.00,CLR,,0.00,WeatherDisplay:10.37,2015-05-25 12:10:00,
2015-05-25 08:15:00,68.9,46.7,30.11,South,180,8.1,8.1,45,0.00,CLR,,0.00,WeatherDisplay:10.37,2015-05-25 12:15:00,
2015-05-25 08:20:00,68.9,46.7,30.11,South,180,3.5,3.5,45,0.00,CLR,,0.00,WeatherDisplay:10.37,2015-05-25 12:20:00,
2015-05-25 08:25:00,69.3,47.0,30.11,South,180,6.9,6.9,45,0.00,CLR,,0.00,WeatherDisplay:10.37,2015-05-25 12:25:00,
2015-05-25 08:30:00,70.9,47.3,30.12,SE,135,3.5,3.5,43,0.00,CLR,,0.00,WeatherDisplay:10.37,2015-05-25 12:30:00,
2015-05-25 08:35:00,71.2,47.0,30.12,SE,135,9.2,9.2,42,0.00,CLR,,0.00,WeatherDisplay:10.37,2015-05-25 12:35:00,
2015-05-25 08:40:00,72.5,47.5,30.12,SW,225,9.2,9.2,41,0.00,CLR,,0.00,WeatherDisplay:10.37,2015-05-25 12:40:00,
2015-05-25 08:45:00,73.4,46.2,30.12,West,270,8.1,8.1,38,0.00,CLR,,0.00,WeatherDisplay:10.37,2015-05-25 12:45:00,
2015-05-25 08:50:00,73.2,46.1,30.12,South,180,4.6,4.6,38,0.00,CLR,,0.00,WeatherDisplay:10.37,2015-05-25 12:50:00,
2015-05-25 08:55:00,73.0,46.6,30.12,South,180,8.1,8.1,39,0.00,CLR,,0.00,WeatherDisplay:10.37,2015-05-25 12:55:00,
2015-05-25 09:00:00,72.9,46.4,30.12,South,180,11.5,11.5,39,0.00,CLR,,0.00,WeatherDisplay:10.37,2015-05-25 13:00:00,
2015-05-25 09:05:00,72.9,46.4,30.12,SW,225,11.5,11.5,39,0.00,CLR,,0.00,WeatherDisplay:10.37,2015-05-25 13:05:00,
2015-05-25 09:10:00,73.4,46.9,30.12,East,90,8.1,8.1,39,0.00,CLR,,0.00,WeatherDisplay:10.37,2015-05-25 13:10:00,
2015-05-25 09:15:00,73.2,46.1,30.12,NW,315,12.7,12.7,38,0.00,CLR,,0.00,WeatherDisplay:10.37,2015-05-25 13:15:00,
2015-05-25 09:20:00,73.8,45.9,30.12,SW,225,9.2,9.2,37,0.00,CLR,,0.00,WeatherDisplay:10.37,2015-05-25 13:20:00,
2015-05-25 09:25:00,73.4,46.2,30.12,North,0,10.4,10.4,38,0.00,CLR,,0.00,WeatherDisplay:10.37,2015-05-25 13:25:00,
2015-05-25 09:30:00,73.8,46.6,30.13,South,180,8.1,8.1,38,0.00,CLR,,0.00,WeatherDisplay:10.37,2015-05-25 13:30:00,
2015-05-25 09:35:00,74.3,45.6,30.13,South,180,12.7,12.7,36,0.00,CLR,,0.00,WeatherDisplay:10.37,2015-05-25 13:35:00,
2015-05-25 09:40:00,74.8,46.1,30.13,SE,135,6.9,6.9,36,0.00,CLR,,0.00,WeatherDisplay:10.37,2015-05-25 13:40:00,
2015-05-25 09:45:00,75.6,46.7,30.13,South,180,10.4,10.4,36,0.00,CLR,,0.00,WeatherDisplay:10.37,2015-05-25 13:45:00,
2015-05-25 09:50:00,75.2,44.9,30.13,South,180,17.3,17.3,34,0.00,CLR,,0.00,WeatherDisplay:10.37,2015-05-25 13:50:00,
2015-05-25 09:55:00,75.4,46.6,30.13,WNW,292,9.2,9.2,36,0.00,CLR,,0.00,WeatherDisplay:10.37,2015-05-25 13:55:00,
2015-05-25 10:00:00,75.9,45.5,30.13,SW,225,19.6,19.6,34,0.00,CLR,,0.00,WeatherDisplay:10.37,2015-05-25 14:00:00,
2015-05-25 10:05:00,75.9,47.0,30.13,South,180,17.3,17.3,36,0.00,CLR,,0.00,WeatherDisplay:10.37,2015-05-25 14:05:00,
2015-05-25 10:10:00,75.2,45.7,30.13,WSW,248,28.8,28.8,35,0.00,CLR,,0.00,WeatherDisplay:10.37,2015-05-25 14:10:00,
2015-05-25 10:15:00,74.8,46.8,30.13,South,180,18.4,18.4,37,0.00,CLR,,0.00,WeatherDisplay:10.37,2015-05-25 14:15:00,
2015-05-25 10:20:00,74.8,46.8,30.13,SW,225,9.2,9.2,37,0.00,CLR,,0.00,WeatherDisplay:10.37,2015-05-25 14:20:00,
2015-05-25 10:25:00,74.3,47.0,30.13,North,0,10.4,10.4,38,0.00,CLR,,0.00,WeatherDisplay:10.37,2015-05-25 14:25:00,
2015-05-25 10:30:00,74.7,47.4,30.13,North,0,15.0,15.0,38,0.00,CLR,,0.00,WeatherDisplay:10.37,2015-05-25 14:30:00,
2015-05-25 10:35:00,75.2,47.8,30.12,North,0,10.4,10.4,38,0.00,CLR,,0.00,WeatherDisplay:10.37,2015-05-25 14:35:00,
2015-05-25 10:40:00,75.7,46.9,30.13,SW,225,16.1,16.1,36,0.00,CLR,,0.00,WeatherDisplay:10.37,2015-05-25 14:40:00,
2015-05-25 10:45:00,75.0,47.0,30.12,West,270,17.3,17.3,37,0.00,CLR,,0.00,WeatherDisplay:10.37,2015-05-25 14:45:00,
2015-05-25 10:50:00,75.4,47.3,30.12,South,180,10.4,10.4,37,0.00,CLR,,0.00,WeatherDisplay:10.37,2015-05-25 14:50:00,
2015-05-25 10:55:00,76.3,47.4,30.12,West,270,10.4,10.4,36,0.00,CLR,,0.00,WeatherDisplay:10.37,2015-05-25 14:55:00,
2015-05-25 11:00:00,76.6,47.7,30.12,SW,225,10.4,10.4,36,0.00,CLR,,0.00,WeatherDisplay:10.37,2015-05-25 15:00:00,
2015-05-25 11:05:00,76.3,47.4,30.12,SW,225,15.0,15.0,36,0.00,CLR,,0.00,WeatherDisplay:10.37,2015-05-25 15:05:00,
2015-05-25 11:10:00,77.0,47.2,30.12,SW,225,23.0,23.0,35,0.00,CLR,,0.00,WeatherDisplay:10.37,2015-05-25 15:10:00,
2015-05-25 11:15:00,78.3,47.6,30.12,South,180,8.1,8.1,34,0.00,CLR,,0.00,WeatherDisplay:10.37,2015-05-25 15:15:00,
2015-05-25 11:20:00,78.3,47.6,30.12,South,180,10.4,10.4,34,0.00,CLR,,0.00,WeatherDisplay:10.37,2015-05-25 15:20:00,
2015-05-25 11:25:00,78.8,48.1,30.12,SW,225,11.5,11.5,34,0.00,CLR,,0.00,WeatherDisplay:10.37,2015-05-25 15:25:00,
2015-05-25 11:30:00,78.6,47.9,30.12,SSW,202,15.0,15.0,34,0.00,CLR,,0.00,WeatherDisplay:10.37,2015-05-25 15:30:00,
2015-05-25 11:35:00,79.3,48.5,30.12,SW,225,10.4,10.4,34,0.00,CLR,,0.00,WeatherDisplay:10.37,2015-05-25 15:35:00,
2015-05-25 11:40:00,79.2,47.6,30.12,SW,225,11.5,11.5,33,0.00,CLR,,0.00,WeatherDisplay:10.37,2015-05-25 15:40:00,
2015-05-25 11:45:00,79.0,49.0,30.11,WNW,292,15.0,15.0,35,0.00,CLR,,0.00,WeatherDisplay:10.37,2015-05-25 15:45:00,
2015-05-25 11:50:00,79.5,47.1,30.11,South,180,15.0,15.0,32,0.00,CLR,,0.00,WeatherDisplay:10.37,2015-05-25 15:50:00,
2015-05-25 11:55:00,79.3,47.7,30.11,NW,315,15.0,15.0,33,0.00,CLR,,0.00,WeatherDisplay:10.37,2015-05-25 15:55:00,
2015-05-25 12:00:00,79.9,47.4,30.11,West,270,12.7,12.7,32,0.00,CLR,,0.00,WeatherDisplay:10.37,2015-05-25 16:00:00,
2015-05-25 12:05:00,80.6,48.0,30.11,SSE,158,12.7,12.7,32,0.00,CLR,,0.00,WeatherDisplay:10.37,2015-05-25 16:05:00,
2015-05-25 12:10:00,81.5,48.8,30.11,NW,315,13.8,13.8,32,0.00,CLR,,0.00,WeatherDisplay:10.37,2015-05-25 16:10:00,
2015-05-25 12:15:00,82.4,47.8,30.11,SE,135,10.4,10.4,30,0.00,CLR,,0.00,WeatherDisplay:10.37,2015-05-25 16:15:00,